Regional Weather Roundup
Issued by NWS Sterling, VA

Home | Current Version | Previous Version | Text Only | Print | Product List | Glossary Off
Versions: 1 2 3 4 5 6 7 8 9 10 11 12 13 14 15 16 17 18 19 20 21 22 23 24 25 26 27 28 29 30 31 32 33 34 35 36 37 38 39 40 41 42 43 44 45 46 47 48 49 50

000
ASUS41 KLWX 210810
RWRLWX

REGIONAL WEATHER ROUNDUP
NATIONAL WEATHER SERVICE BALTIMORE MD/WASHINGTON DC
300 AM EST SUN DEC 21 2014

Note: "FAIR" indicates few or no clouds below 12,000 feet
with no significant weather and/or obstructions to visibility.
 TC=TEMPERATURE CELSIUS

 * =Non NWS site. Station does not report precipitation (e.g. rain,
    snow, etc.), thunder, or fog.

DCZ001-MDZ009-015-VAZ040>042-051-053>054-210900-
WASHINGTON METRO

CITY           SKY/WX    TMP DP  RH WIND       PRES   REMARKS
WASHINGTON NAT CLOUDY    37  24  59 CALM      30.33R
DULLES         CLOUDY    31  26  82 CALM      30.30S
ANDREWS AFB    CLOUDY    31  26  83 CALM      30.30R
FT BELVOIR     CLOUDY    32  26  80 CALM      30.32S
QUANTICO       CLOUDY    33  26  75 NW3       30.33S
COLLEGE PARK*  CLOUDY    32  28  86 CALM      30.32R
LEESBURG*      CLOUDY    32  28  86 CALM      30.31S
MANASSAS*      CLOUDY    32  30  93 CALM      30.31S
GAITHERSBURG*  CLOUDY    30  21  69 CALM      30.33S

$$

MDZ006>007-011-014-210900-
BALTIMORE METRO

CITY           SKY/WX    TMP DP  RH WIND       PRES   REMARKS
BWI AIRPORT    CLOUDY    31  24  75 CALM      30.31R
MD SCIENCE CTR   N/A     34  24  67 MISG      30.32R
MARTIN STATE   MOCLDY    32  28  86 CALM      30.33S
ANNAPOLIS      CLOUDY    35  27  72 CALM      30.31R
FORT MEADE*    CLOUDY    32  27  80 CALM      30.34R

$$

MDZ012-015-019>023-210900-
MARYLAND EASTERN SHORE

CITY           SKY/WX    TMP DP  RH WIND       PRES   REMARKS
OCEAN CITY     CLOUDY    30  26  85 NW3       30.30S
SALISBURY      CLOUDY    30  25  81 CALM      30.30F
BAY BRIDGE AP*   N/A     32  28  86 CALM      30.32R
CAMBRIDGE*     CLOUDY    32  30  93 CALM      30.30S
EASTON*        MOCLDY    32  31  96 CALM      30.35R

$$

MDZ017>025-210900-
SOUTHERN MARYLAND

CITY           SKY/WX    TMP DP  RH WIND       PRES   REMARKS
PATUXENT RIVER CLOUDY    32  26  78 CALM      30.30F
ST INIGOES     CLOUDY    33  26  75 CALM      30.30S
LEONARDTOWN*   CLOUDY    32  27  80 CALM      30.32R

$$

MDZ003>005-210900-
NORTH CENTRAL MARYLAND

CITY           SKY/WX    TMP DP  RH WIND       PRES   REMARKS
FREDERICK*     CLOUDY    32  25  74 CALM      30.33S
HAGERSTOWN APT CLOUDY    29  23  78 CALM      30.28S
WESTMINSTER*   CLOUDY    28  21  74 CALM      30.27S

$$

MDZ501>502-210900-
WESTERN MARYLAND

CITY           SKY/WX    TMP DP  RH WIND       PRES   REMARKS
OAKLAND*       CLOUDY    23 N/A N/A CALM      30.16R
CUMBERLAND*    CLOUDY    32  27  80 CALM      30.32R

$$

VAZ025>031-210900-
SHENANDOAH VALLEY

CITY           SKY/WX    TMP DP  RH WIND       PRES   REMARKS
WINCHESTER*    CLOUDY    32  21  64 CALM      30.28R
FRONT ROYAL*   CLOUDY    32  25  74 CALM      30.26F
LURAY*         CLOUDY    32  28  86 CALM      30.26S
NEW MARKET*    CLOUDY    31  24  74 CALM      30.25S
STAUNTON*      CLOUDY    32  26  80 CALM      30.26R
WAYNESBORO*    CLOUDY    31  26  80 CALM      30.23R

$$

WVZ021-048>050-054>055-210900-
EASTERN WEST VIRGINIA PANHANDLE

CITY           SKY/WX    TMP DP  RH WIND       PRES   REMARKS
MARTINSBURG    CLOUDY    32  21  64 N3        30.29R
PETERSBURG*    CLOUDY    32  26  79 CALM      30.27R

$$

VAZ036>039-050-210900-
CENTRAL FOOTHILLS

CITY           SKY/WX    TMP DP  RH WIND       PRES   REMARKS
CHARLOTTESVILL CLOUDY    33  26  75 CALM      30.28R
CULPEPER*      CLOUDY    34  30  86 CALM      30.30S
ORANGE*        CLOUDY    32  30  93 CALM      30.30S
GORDONSVILLE*  CLOUDY    32  28  86 CALM      30.29R
WARRENTON*     CLOUDY    33  31  92 CALM      30.30S

$$

VAZ055>057-210900-
NORTH AND CENTRAL PIEDMONT

CITY           SKY/WX    TMP DP  RH WIND       PRES   REMARKS
FREDERICKSBRG* CLOUDY    34  28  79 CALM      30.30S
STAFFORD*      CLOUDY    32  28  84 CALM      30.35S

$$

NCZ024-NYZ072-PAZ021-071-VAZ022-071-210900-
OTHER REGIONAL OBSERVATIONS

CITY           SKY/WX    TMP DP  RH WIND       PRES   REMARKS
NEW YORK CITY  CLOUDY    31  22  69 NW6       30.30S
PHILADELPHIA   CLOUDY    32  23  69 SE3       30.31S
PITTSBURGH     CLOUDY    27  22  81 CALM      30.27R
ROANOKE        CLOUDY    35  26  69 CALM      30.26R
RICHMOND       CLOUDY    36  25  64 CALM      30.30R
RALEIGH        CLOUDY    38  34  85 CALM      30.28S FOG

$$

ANZ530>537-210900-
MARINE OBSERVATIONS

STATION/POSITION TIME  TEMP    WIND        PRES
                       AIR SEA DIR/SP/G
                 (UTC) (F)     (DEG/KT/KT) (MB)
THOMAS PT LIGHT  0800   35 41   CALM  /  1 1027.6R
BALT KEY BRIDGE  0800   34      10/  4/  4 1026.5R
COVE POINT       0800   34     330/  5/  6 1026.1R
LEWISETTA        0800   35 40  290/  4/  4 1026.0R
SOLOMONS ISLAND  0800      42                N/A

$$



USA.gov is the U.S. government's official web portal to all federal, state and local government web resources and services.